Bolton Field, OH

5:00 AM EDT on July 23, 2017 (GMT -0400)
Bolton

Weather History for KTZR - November, 2013

Change the Weather History Date:

Saturday, November 2, 2013

  Actual Average Record
Temperature  
Mean Temperature 47 °F -  
Max Temperature 51 °F 56 °F 82 °F (2008)
Min Temperature 43 °F 39 °F 26 °F (1996)
Degree Days  
Heating Degree Days 18    
Moisture  
Dew Point 41 °F    
Average Humidity 79    
Maximum Humidity 91    
Minimum Humidity 58    
Precipitation  
Precipitation 0.00 in - - ()
Sea Level Pressure  
Sea Level Pressure 29.84 in    
Wind  
Wind Speed 6 mph (West)    
Max Wind Speed 12 mph    
Max Gust Speed 17 mph    
Visibility 10 miles    
Events Rain    
Averages and records for this station are not official NWS values.
T = Trace of Precipitation, MM = Missing Value Source: NWS Daily Summary

Daily Weather History Graph

Daily Weather History Graph

Search for Another Location

Airport or City:

Trip Planner

Search our weather history database for the weather conditions in past years. The results will help you decide how hot, cold, wet, or windy it might be!

Date:

Astronomy

Nov. 02, 2013 Rise Set
Actual Time 8:02 AM EDT 6:28 PM EDT
Civil Twilight 7:34 AM EDT 6:56 PM EDT
Nautical Twilight 7:02 AM EDT 7:28 PM EDT
Astronomical Twilight 6:31 AM EDT 8:00 PM EDT
Moon 6:59 AM EDT (11/2) 5:59 PM EDT (11/2)
Length of Visible Light 11h 22m
Length of Day
10h 25m
Waning Crescent, 1% of the Moon is Illuminated
Nov 2
Waning Crescent
Nov 3
New
Nov 10
First Quarter
Nov 17
Full
Nov 25
Last Quarter

Hourly Weather History & Observations

Time (EDT) Temp. Windchill Dew Point Humidity Pressure Visibility Wind Dir Wind Speed Gust Speed Precip Events Conditions
12:15 AM 50.7 °F - 43.5 °F 76% 29.73 in 10.0 mi WNW 4.6 mph - N/A   Overcast
12:35 AM 50.5 °F - 42.8 °F 75% 29.73 in 10.0 mi West 4.6 mph - N/A   Overcast
12:55 AM 50.2 °F - 42.8 °F 76% 29.73 in 10.0 mi West 5.8 mph - N/A   Overcast
1:15 AM 49.6 °F - 43.0 °F 78% 29.73 in 10.0 mi WSW 4.6 mph - N/A   Overcast
1:35 AM 50.0 °F - 42.1 °F 74% 29.73 in 10.0 mi West 6.9 mph - N/A   Overcast
1:55 AM 50.0 °F - 41.0 °F 71% 29.73 in 10.0 mi West 6.9 mph - N/A   Overcast
2:15 AM 49.3 °F - 41.2 °F 74% 29.73 in 10.0 mi West 5.8 mph - N/A   Overcast
2:35 AM 48.9 °F - 41.2 °F 75% 29.73 in 10.0 mi Calm Calm - N/A   Overcast
2:55 AM 48.7 °F - 39.6 °F 71% 29.73 in 10.0 mi West 6.9 mph - N/A   Overcast
3:15 AM 48.4 °F - 39.6 °F 72% 29.73 in 10.0 mi West 9.2 mph - N/A   Overcast
3:35 AM 48.2 °F - 39.9 °F 73% 29.73 in 10.0 mi West 5.8 mph - N/A   Overcast
3:55 AM 47.7 °F - 40.1 °F 75% 29.73 in 10.0 mi West 5.8 mph - N/A   Overcast
4:15 AM 47.7 °F - 40.3 °F 76% 29.74 in 10.0 mi West 9.2 mph - N/A   Overcast
4:35 AM 47.5 °F - 40.3 °F 76% 29.74 in 10.0 mi West 6.9 mph - N/A   Overcast
4:55 AM 47.3 °F - 40.5 °F 77% 29.75 in 10.0 mi WSW 6.9 mph - N/A   Overcast
5:15 AM 47.3 °F - 40.6 °F 78% 29.75 in 10.0 mi West 8.1 mph - N/A   Overcast
5:35 AM 47.3 °F - 41.0 °F 79% 29.74 in 10.0 mi West 6.9 mph - N/A   Overcast
5:55 AM 47.3 °F - 41.4 °F 80% 29.75 in 10.0 mi WSW 6.9 mph - N/A   Overcast
6:15 AM 47.3 °F - 41.4 °F 80% 29.76 in 10.0 mi WSW 5.8 mph - N/A   Overcast
6:35 AM 47.3 °F - 41.5 °F 80% 29.76 in 10.0 mi WSW 8.1 mph - N/A   Overcast
6:55 AM 47.3 °F - 41.5 °F 80% 29.77 in 10.0 mi WSW 6.9 mph - N/A   Overcast
7:15 AM 46.8 °F - 41.4 °F 81% 29.77 in 10.0 mi WSW 9.2 mph - N/A   Overcast
7:50 AM 46.4 °F 41.9 °F 41.0 °F 81% 29.77 in 10.0 mi West 9.2 mph - N/A   Overcast
8:45 AM 46.4 °F 42.9 °F 42.8 °F 87% 29.79 in 10.0 mi West 6.9 mph - N/A   Overcast
9:50 AM 46.4 °F 42.9 °F 42.8 °F 87% 29.81 in 10.0 mi West 6.9 mph - N/A   Overcast
10:55 AM 48.2 °F - 42.8 °F 82% 29.83 in 10.0 mi West 9.2 mph 17.3 mph N/A   Overcast
12:58 PM 51.8 °F - 37.4 °F 58% 29.85 in 10.0 mi West 11.5 mph - N/A   Overcast
1:55 PM 51.8 °F - 39.2 °F 62% 29.85 in 10.0 mi WNW 9.2 mph - N/A   Overcast
3:55 PM 51.8 °F - 37.4 °F 58% 29.87 in 10.0 mi West 8.1 mph - N/A   Overcast
5:50 PM 51.8 °F - 37.4 °F 58% 29.90 in 10.0 mi West 8.1 mph - N/A   Overcast
7:35 PM 45.1 °F 40.3 °F 41.7 °F 88% 29.96 in 10.0 mi NW 9.2 mph 17.3 mph N/A Rain Light Rain
7:55 PM 45.0 °F 41.2 °F 41.4 °F 87% 29.97 in 10.0 mi WNW 6.9 mph - N/A   Overcast
8:15 PM 45.0 °F 41.2 °F 41.2 °F 87% 29.98 in 10.0 mi NW 6.9 mph - N/A Rain Light Rain
8:35 PM 45.0 °F 40.6 °F 41.0 °F 86% 29.99 in 10.0 mi WNW 8.1 mph - N/A   Overcast
8:55 PM 44.8 °F 39.9 °F 41.0 °F 87% 30.00 in 10.0 mi WNW 9.2 mph - N/A   Overcast
9:15 PM 44.6 °F 40.7 °F 41.0 °F 87% 30.01 in 10.0 mi WNW 6.9 mph - N/A   Overcast
9:35 PM 44.6 °F 41.4 °F 41.2 °F 88% 30.01 in 10.0 mi WNW 5.8 mph - N/A   Overcast
9:55 PM 44.6 °F 41.4 °F 41.4 °F 88% 30.02 in 10.0 mi WNW 5.8 mph - N/A   Overcast
10:15 PM 43.9 °F 41.3 °F 41.0 °F 90% 30.03 in 10.0 mi WNW 4.6 mph - N/A   Overcast
10:35 PM 43.7 °F 42.1 °F 41.2 °F 91% 30.04 in 10.0 mi WNW 3.5 mph - N/A   Overcast
10:55 PM 44.2 °F 41.0 °F 41.0 °F 88% 30.04 in 10.0 mi WNW 5.8 mph - N/A   Overcast
11:15 PM 43.9 °F 40.5 °F 41.0 °F 90% 30.05 in 10.0 mi WNW 5.8 mph - N/A   Overcast
11:35 PM 43.7 °F 39.7 °F 40.8 °F 90% 30.06 in 10.0 mi WNW 6.9 mph - N/A   Overcast
11:55 PM 43.2 °F 39.7 °F 40.6 °F 91% 30.06 in 10.0 mi WNW 5.8 mph - N/A   Overcast